Tracking 19817 objects as of 19-Aug-2019
HD Live streaming from Space Station
objects crossing your sky now

OPS 9322 (IDSCS 9)

Track OPS 9322 (IDSCS 9) now!
OPS 9322 (IDSCS 9) is classified as:


NORAD ID: 2649
Int'l Code: 1967-003B
Perigee: 33,543.5 km
Apogee: 33,832.0 km
Inclination: 3.8 °
Period: 1,329.9 minutes
Semi major axis: 40058 km
RCS: 0.1995 m2 (medium)
Launch date: January 18, 1967
Source: United States (US)
Launch site: AIR FORCE EASTERN TEST RANGE (AFETR)
aabbcc
Your satellite tracking list
Your tracking list is empty




NASA's NSSDC Master Catalog

Two Line Element Set (TLE):
1  2649U 67003B   19230.62642994 -.00000106 +00000-0 +00000-0 0  9992
2  2649 003.7971 057.8784 0036010 051.9107 124.6412 01.08282201112426
Source of the keplerian elements: AFSPC